Skip Page Navigation
NASA JPL Caltech
NASA Logo - Jet Propulsion Laboratory + View the NASA Portal
+ Center for Near-Earth Object Studies
JPL Home Earth Solar System Stars & Galaxies Technology
JPL Solar System Dynamics
BODIES ORBITS EPHEMERIDES TOOLS PHYSICAL DATA DISCOVERY FAQ SITE MAP
JPL Small-Body Database Browser
Search: [ help ]  
392035 (2009 BV54)
Classification: Main-belt Asteroid          SPK-ID: 2392035
Ephemeris | Orbit Diagram | Orbital Elements | Mission Design | Physical Parameters | Discovery Circumstances | Close-Approach Data ]

[ show orbit diagram ]
Orbital Elements at Epoch 2459000.5 (2020-May-31.0) TDB
Reference: JPL 10 (heliocentric ecliptic J2000)
 Element Value Uncertainty (1-sigma)   Units 
e .1328890913502781 2.0641e-07  
a 2.802587886868436 7.0163e-08 au
q 2.430154529153194 5.2973e-07 au
i 2.981481863706229 1.6022e-05 deg
node 4.164689846084785 0.0002067 deg
peri 132.3498257740816 0.00023801 deg
M 149.9366985238005 0.00012376 deg
tp 2458286.755572036516
(2018-Jun-17.25557204)
0.00056892 TDB
period 1713.709829525605
4.69
6.4354e-05
1.762e-07
d
yr
n .2100705695897516 7.8887e-09 deg/d
Q 3.175021244583679 7.9487e-08 au
  Orbit Determination Parameters
   # obs. used (total)      58  
   data-arc span      8880 days (24.31 yr)  
   first obs. used      1995-02-02  
   last obs. used      2019-05-27  
   planetary ephem.      DE431  
   SB-pert. ephem.      SB431-N16  
   condition code      0  
   norm. resid. RMS      .59708  
   source      ORB  
   producer      Otto Matic  
   solution date      2020-Feb-26 04:41:53  

Additional Information
 Earth MOID = 1.44505 au 
 Jupiter MOID = 1.8523 au 
 T_jup = 3.309 
[ show covariance matrix ]

Ephemeris | Orbit Diagram | Orbital Elements | Mission Design | Physical Parameters | Discovery Circumstances | Close-Approach Data ]

Physical Parameter Table
Parameter Symbol Value Units Sigma Reference Notes
absolute magnitude H 17.4   n/a MPO234720  

392035 (2009 BV54)          Discovered 2007-Sep-14 by Mt. Lemmon Survey at Mount Lemmon
Reference: Last Updated: 2014-04-17

[ hide close-approach data ]
Close-Approach Data   ...sorted by Date/Time (TDB)
Date/Time (TDB) Time Uncertainty
(days_HH:MM)
Body Nominal Distance (au) Minimum Distance (au) Maximum Distance (au) V-relative (km/s) V-infinity (km/s) JD (TDB) Time Uncertainty (minutes) Semi-major axis (km) Semi-minor axis (km) range-LOV angle (deg) N-sigma BP Orbit Ref. Reference Modified
1927-Oct-14 16:26 00:11 Jupiter 1.93834808512204 1.9383419983041 1.93835417195718 2.77054436989644 2.60805537425485 2425168.184783018 11.3601515727746 478.603355217279 74.1388979896772 73.0333175060158 546201.742714725 T 10 CATAB v2.0f-lin.ifort 2020-Feb-26 04:41:54 2020-Feb-26 04:42
1950-Dec-12 00:29 00:08 Jupiter 1.86588134324384 1.86587797875611 1.86588470774365 2.4055334662179 2.20877458532371 2433627.519842358 8.1843944433239 391.243373753632 35.2321512272613 88.1064574983883 591864.587933616 T 10 CATAB v2.0f-lin.ifort 2020-Feb-26 04:41:54 2020-Feb-26 04:42
1974-Feb-11 19:19 00:05 Jupiter 1.8695389152705 1.86953732047965 1.8695405100605 2.28699882172585 2.07947920227231 2442090.304932854 5.2112656876255 251.121760898011 33.0194782695163 -84.9091618533594 598271.969980639 T 10 CATAB v2.0f-lin.ifort 2020-Feb-26 04:41:54 2020-Feb-26 04:42
1997-Apr-09 09:57 00:03 Jupiter 1.94673550519116 1.94673400268749 1.94673700769338 2.39820594767953 2.20934241970578 2450547.914901352 2.64425448863285 178.973324525672 37.6379670988909 -89.6884163418603 719499.167973221 T 10 CATAB v2.0f-lin.ifort 2020-Feb-26 04:41:54 2020-Feb-26 04:42
2105-Sep-14 03:48 00:09 Jupiter 1.9193465407036 1.91934506621717 1.91934801519266 2.66786679932174 2.49697772235531 2490151.658496602 9.29526858195888 542.646538262552 41.7264316741548 88.6517628032271 809580.506265857 T 10 CATAB v2.0f-lin.ifort 2020-Feb-26 04:41:54 2020-Feb-26 04:42
2128-Nov-11 22:19 00:12 Jupiter 1.85553970786803 1.85553800080732 1.85554141499771 2.35723402341055 2.15489815153943 2498611.429607146 11.918113751092 754.685882285179 32.6274263669009 -87.2031800967521 867574.974917275 T 10 CATAB v2.0f-lin.ifort 2020-Feb-26 04:41:54 2020-Feb-26 04:42
2152-Jan-14 04:19 00:15 Jupiter 1.87172478781627 1.87172044881591 1.87172912688451 2.29588734178853 2.08950401812505 2507074.679602758 14.9657724468346 665.426644764304 37.5984438099733 -80.6640531447822 878744.731041241 T 10 CATAB v2.0f-lin.ifort 2020-Feb-26 04:41:54 2020-Feb-26 04:42
2175-Mar-11 00:13 00:18 Jupiter 1.96244772706037 1.96243975658363 1.96245569753098 2.46692377743047 2.2852750975122 2515531.509369601 18.2692166570938 402.171339918291 102.545049017459 -57.0025214739369 445212.360199668 T 10 CATAB v2.0f-lin.ifort 2020-Feb-26 04:41:54 2020-Feb-26 04:42
Ephemeris | Orbit Diagram | Orbital Elements | Mission Design | Physical Parameters | Discovery Circumstances | Close-Approach Data ]
ABOUT SSD CREDITS/AWARDS PRIVACY/COPYRIGHT GLOSSARY LINKS
FirstGov 2020-Jul-04 03:53 UT
(server date/time)  
NASA Home Page
Site Manager:   Ryan S. Park
Webmaster  Alan B. Chamberlin